Find Starlink 34273

NORAD ID: 64905 Int'l Des: 2025-157 Owner: SPXS Country: US Constellation: starlink operational
LEOCIRCULAR

当前视图

正在加载3D地球...

About Starlink 34273

Starlink 34273 (NORAD 64905) is a starlink constellation satellite (v2 mini) launched Jul 26, 2025 by SPXS of US. It operates in LEO, CIRCULAR orbit with a mass of 575.00 kg.

即将过境

Passes for default location (London). Set your location on the main map for personalized predictions.

高度历史

Loading altitude history...

两行轨道根数

1 64905U 25157B 26263.41009865 .00011011 00000-0 33645-3 0 9994
2 64905 53.1566 157.8620 0001112 78.8843 281.2285 15.34408318 65998
Epoch: Sep 20, 2026 • Age: 22 hours

当前状态

高度 478.3 km
远地点 / 近地点 N/A
速度 7.63 km/s
星下点 -44.71°S, 6°W
发射日期 Jul 26, 2025
运行时间 1.1 years
类型 internet

技术详情

分类 Payload
质量 575.00 kg
干质量 530.00 kg
长度 0.30 m
跨度 29.00 m
形状 ? Box + pan
制造商 SPXS
平台类型 Starlink V2MO
阶段状态 In Orbit
所有者/国家 SPXS/US

Most Searched